Location: Cieszkowy
(50.3290°N, 20.5336°E)
Time: 13:53:16
(UTC+00:00)

USA 234 - Visible Passes

Search period start: 14 September 2024 00:00
Search period end: 24 September 2024 00:00
Orbit: 1100 x 1107 km, 123.0° (Epoch: 08 July)

Date Brightness Start Highest point End Pass type
(mag) Time Alt. Az. Time Alt. Az. Time Alt. Az.
14 Sep 5.7 17:32:35 10° SSW 17:36:19 16° WSW 17:40:04 10° W visible
16 Sep 5.6 17:50:04 10° SSW 17:53:47 16° WSW 17:57:31 10° W visible
18 Sep 5.6 18:07:35 10° SSW 18:11:15 16° WSW 18:14:57 10° W visible
19 Sep 4.9 17:22:12 10° S 17:27:49 30° SW 17:33:29 10° WNW visible
20 Sep 5.5 18:25:04 10° SSW 18:28:43 15° WSW 18:32:24 10° W visible
21 Sep 4.9 17:39:40 10° S 17:45:17 30° SW 17:50:57 10° WNW visible
22 Sep 4.1 16:55:44 10° SE 17:02:06 52° SW 17:08:30 10° WNW visible
22 Sep 5.5 18:42:33 10° SSW 18:46:11 15° WSW 18:49:50 10° W visible
23 Sep 4.8 17:57:09 10° S 18:02:45 30° SW 18:08:24 10° WNW visible
